When you browse on this site, cookies collect data to enhance your experience and personalize the content and advertising you see.
Visit our Privacy Policy to learn more. By continuing to use the site, you agree to this use of cookies and data.
  • In Austria
  • List of Countries
  • For 7 days
  • Water Temperature
  • Satellite Maps
  • Weather Map
  • News
  • Weather Widgets
  • user-avatar
    Login

    Hourly Weather Kielminek

    Today, 18 February, Monday

    Time Temperature Precipitation Wind Pressure Humidity
    00:00 +4°C° 0 mm 1 mps 757 mmHg 94%
    01:00 +4°C° 0 mm 1 mps 757 mmHg 94%
    02:00 +4°C° 0 mm 1 mps 756 mmHg 95%
    03:00 +3°C° 0 mm 1 mps 756 mmHg 95%
    04:00 +3°C° 0 mm 1 mps 756 mmHg 95%
    05:00 +3°C° 0 mm 1 mps 756 mmHg 95%
    06:00 +3°C° 0 mm 1 mps 756 mmHg 95%
    07:00 +3°C° 0 mm 1 mps 756 mmHg 95%
    08:00 +3°C° 0 mm 2 mps 756 mmHg 91%
    09:00 +4°C° 0 mm 2 mps 756 mmHg 88%
    10:00 +5°C° 0 mm 3 mps 756 mmHg 84%
    11:00 +7°C° 0 mm 3 mps 756 mmHg 80%
    12:00 +8°C° 0 mm 3 mps 756 mmHg 76%
    13:00 +8°C° 0 mm 4 mps 755 mmHg 72%
    14:00 +7°C° 0 mm 4 mps 755 mmHg 74%
    15:00 +8°C° 0 mm 3 mps 754 mmHg 76%
    16:00 +8°C° 0 mm 3 mps 754 mmHg 78%
    17:00 +6°C° 0 mm 4 mps 754 mmHg 82%
    18:00 +5°C° 0 mm 4 mps 753 mmHg 86%
    19:00 +4°C° 0 mm 4 mps 753 mmHg 89%
    20:00 +4°C° 0 mm 4 mps 753 mmHg 89%
    21:00 +3°C° 0 mm 4 mps 753 mmHg 89%
    22:00 +3°C° 0 mm 4 mps 752 mmHg 89%
    23:00 +3°C° 0 mm 4 mps 752 mmHg 87%

    Tomorrow, 19 February, Tuesday

    Time Temperature Precipitation Wind Pressure Humidity
    00:00 +1°C° 0 mm 4 mps 752 mmHg 86%
    01:00 +2°C° 0 mm 3 mps 752 mmHg 85%
    02:00 +2°C° 0 mm 3 mps 751 mmHg 84%
    03:00 0°C° 0 mm 4 mps 750 mmHg 84%
    04:00 0°C° 0 mm 4 mps 750 mmHg 83%
    05:00 0°C° 0 mm 4 mps 750 mmHg 83%
    06:00 0°C° 0 mm 4 mps 749 mmHg 82%
    07:00 0°C° 0 mm 4 mps 749 mmHg 82%
    08:00 +1°C° 0 mm 5 mps 748 mmHg 79%
    09:00 +2°C° 0 mm 5 mps 748 mmHg 75%
    10:00 +3°C° 0 mm 6 mps 748 mmHg 72%
    11:00 +4°C° 0 mm 6 mps 748 mmHg 69%
    12:00 +5°C° 0 mm 6 mps 747 mmHg 66%
    13:00 +6°C° 0 mm 7 mps 747 mmHg 63%
    14:00 +7°C° 0 mm 6 mps 747 mmHg 66%
    15:00 +7°C° 0 mm 5 mps 747 mmHg 70%
    16:00 +7°C° 0 mm 4 mps 747 mmHg 74%
    17:00 +6°C° 0.4 mm 4 mps 747 mmHg 78%
    18:00 +5°C° 0.4 mm 5 mps 747 mmHg 83%
    19:00 +5°C° 0.4 mm 5 mps 747 mmHg 88%
    20:00 +5°C° 0.1 mm 5 mps 747 mmHg 86%
    21:00 +4°C° 0.1 mm 4 mps 747 mmHg 85%
    22:00 +4°C° 0.1 mm 4 mps 747 mmHg 83%
    23:00 +3°C° 0 mm 5 mps 747 mmHg 84%

    Day after tomorrow, 20 February, Wednesday

    Time Temperature Precipitation Wind Pressure Humidity
    00:00 +3°C° 0 mm 5 mps 747 mmHg 84%
    01:00 +3°C° 0 mm 5 mps 747 mmHg 84%
    02:00 +2°C° 0 mm 6 mps 748 mmHg 84%
    03:00 +2°C° 0 mm 6 mps 748 mmHg 83%
    04:00 +2°C° 0 mm 6 mps 748 mmHg 83%
    05:00 +2°C° 0 mm 6 mps 748 mmHg 82%
    06:00 +2°C° 0 mm 6 mps 748 mmHg 82%
    07:00 +2°C° 0 mm 6 mps 748 mmHg 82%
    08:00 +2°C° 0.1 mm 6 mps 749 mmHg 82%
    09:00 +3°C° 0.1 mm 6 mps 749 mmHg 81%
    10:00 +3°C° 0.1 mm 6 mps 749 mmHg 81%
    11:00 +3°C° 0.2 mm 7 mps 749 mmHg 79%
    12:00 +4°C° 0.2 mm 7 mps 750 mmHg 76%
    13:00 +4°C° 0.2 mm 7 mps 750 mmHg 74%
    14:00 +4°C° 0.1 mm 7 mps 750 mmHg 75%
    15:00 +4°C° 0.1 mm 6 mps 750 mmHg 77%
    16:00 +3°C° 0.1 mm 6 mps 751 mmHg 78%
    17:00 +3°C° 0.1 mm 6 mps 751 mmHg 80%
    18:00 +3°C° 0.1 mm 5 mps 751 mmHg 82%
    19:00 +2°C° 0.1 mm 5 mps 752 mmHg 84%
    20:00 +3°C° 0 mm 4 mps 752 mmHg 86%
    21:00 +3°C° 0 mm 4 mps 752 mmHg 88%
    22:00 +3°C° 0 mm 4 mps 752 mmHg 90%
    23:00 +3°C° 0.1 mm 3 mps 752 mmHg 92%

    21 February, Thursday

    Time Temperature Precipitation Wind Pressure Humidity
    00:00 +3°C° 0.1 mm 3 mps 752 mmHg 93%
    01:00 +3°C° 0.1 mm 3 mps 752 mmHg 95%
    02:00 +3°C° 0.4 mm 3 mps 752 mmHg 95%
    03:00 +3°C° 0.4 mm 3 mps 752 mmHg 95%
    04:00 +3°C° 0.4 mm 3 mps 752 mmHg 95%
    05:00 +3°C° 0.6 mm 3 mps 752 mmHg 94%
    06:00 +3°C° 0.6 mm 3 mps 752 mmHg 94%
    07:00 +3°C° 0.6 mm 3 mps 752 mmHg 94%
    08:00 +3°C° 0.4 mm 3 mps 752 mmHg 94%
    09:00 +4°C° 0.4 mm 3 mps 753 mmHg 93%
    10:00 +4°C° 0.4 mm 3 mps 753 mmHg 92%
    11:00 +4°C° 0.1 mm 3 mps 753 mmHg 92%
    12:00 +5°C° 0.1 mm 2 mps 753 mmHg 92%
    13:00 +5°C° 0.1 mm 2 mps 754 mmHg 91%
    14:00 +5°C° 0.1 mm 2 mps 754 mmHg 92%
    15:00 +4°C° 0.1 mm 2 mps 754 mmHg 92%
    16:00 +4°C° 0.1 mm 2 mps 754 mmHg 92%
    17:00 +3°C° 0 mm 2 mps 755 mmHg 91%
    18:00 +2°C° 0 mm 3 mps 756 mmHg 89%
    19:00 +1°C° 0 mm 3 mps 756 mmHg 87%
    20:00 +1°C° 0 mm 3 mps 757 mmHg 83%
    21:00 0°C° 0 mm 3 mps 758 mmHg 79%
    22:00 0°C° 0 mm 3 mps 758 mmHg 76%
    23:00 -1°C° 0 mm 3 mps 759 mmHg 75%

    22 February, Friday

    Time Temperature Precipitation Wind Pressure Humidity
    00:00 -1°C° 0 mm 2 mps 760 mmHg 73%
    01:00 -2°C° 0 mm 2 mps 760 mmHg 72%
    02:00 -2°C° 0 mm 2 mps 761 mmHg 70%
    03:00 -2°C° 0 mm 2 mps 761 mmHg 68%
    04:00 -2°C° 0 mm 2 mps 761 mmHg 66%
    05:00 -2°C° 0 mm 2 mps 762 mmHg 65%
    06:00 -3°C° 0 mm 2 mps 763 mmHg 63%
    07:00 -3°C° 0 mm 2 mps 764 mmHg 61%
    08:00 -2°C° 0 mm 2 mps 764 mmHg 55%
    09:00 -1°C° 0 mm 2 mps 765 mmHg 49%
    10:00 -1°C° 0 mm 2 mps 766 mmHg 43%
    11:00 +1°C° 0 mm 2 mps 766 mmHg 41%
    12:00 +2°C° 0 mm 2 mps 766 mmHg 38%
    13:00 +3°C° 0 mm 1 mps 767 mmHg 35%
    14:00 +3°C° 0 mm 1 mps 767 mmHg 39%
    15:00 +3°C° 0 mm 1 mps 767 mmHg 42%
    16:00 +3°C° 0 mm 1 mps 768 mmHg 45%
    17:00 +2°C° 0 mm 1 mps 768 mmHg 48%
    18:00 +1°C° 0 mm 1 mps 768 mmHg 52%
    19:00 0°C° 0 mm 1 mps 769 mmHg 55%
    20:00 -2°C° 0 mm 2 mps 769 mmHg 55%
    21:00 -2°C° 0 mm 2 mps 769 mmHg 55%
    22:00 -2°C° 0 mm 2 mps 769 mmHg 55%
    23:00 -2°C° 0 mm 2 mps 769 mmHg 54%

    23 February, Saturday

    Time Temperature Precipitation Wind Pressure Humidity
    00:00 -1°C° 0 mm 2 mps 769 mmHg 54%
    01:00 -1°C° 0 mm 3 mps 769 mmHg 53%
    02:00 -1°C° 0 mm 3 mps 769 mmHg 55%
    03:00 -1°C° 0 mm 3 mps 769 mmHg 57%
    04:00 -2°C° 0 mm 3 mps 768 mmHg 60%
    05:00 -1°C° 0 mm 3 mps 768 mmHg 60%
    06:00 -1°C° 0 mm 3 mps 768 mmHg 60%
    07:00 -2°C° 0 mm 4 mps 768 mmHg 60%
    08:00 -1°C° 0 mm 4 mps 767 mmHg 62%
    09:00 0°C° 0 mm 4 mps 767 mmHg 64%
    10:00 +1°C° 0 mm 5 mps 767 mmHg 66%
    11:00 +2°C° 0 mm 5 mps 767 mmHg 68%
    12:00 +3°C° 0 mm 5 mps 766 mmHg 71%
    13:00 +6°C° 0 mm 5 mps 766 mmHg 73%
    14:00 +6°C° 0 mm 4 mps 766 mmHg 77%
    15:00 +6°C° 0 mm 4 mps 765 mmHg 82%
    16:00 +5°C° 0 mm 3 mps 765 mmHg 86%
    17:00 +5°C° 0 mm 3 mps 765 mmHg 88%
    18:00 +4°C° 0 mm 3 mps 765 mmHg 90%
    19:00 +3°C° 0 mm 3 mps 765 mmHg 92%
    20:00 +3°C° 0 mm 3 mps 764 mmHg 93%
    21:00 +2°C° 0 mm 3 mps 764 mmHg 93%
    22:00 +2°C° 0 mm 3 mps 764 mmHg 94%
    23:00 +2°C° 0 mm 3 mps 764 mmHg 94%
    Show more